User: anonymous   Login
Location: Brno
(49.2000°N, 16.6330°E)
Time: 22:37:27
(UTC+02:00)
Language:

Cosmos 332 Rocket - Orbit

View from above orbital plane
View from above orbital plane
View from above satellite
View from above satellite

Ground track
Ground track

The orbit data is extracted from the following two-line orbital elements,

1 04370U 70028B   16274.41856606  .00000206  00000-0  49344-4 0  9993
2 04370  74.0394 224.6499 0016377 213.2020 146.8119 14.59794004974073
Epoch (UTC): 30 September 2016 10:02:44
Eccentricity: 0.0016377
inclination: 74.0394°
perigee height: 682 km
apogee height: 705 km
right ascension of ascending node: 224.6499°
argument of perigee: 213.2020°
revolutions per day: 14.59794004
mean anomaly at epoch: 146.8119°
orbit number at epoch: 97407

The dashed part of the orbit path shows where the satellite is in the earth's shadow,  

DLR